2022/12/27 00:00:00,15.0, 1.0
2022/12/27 00:10:00,15.0, 1.2
2022/12/27 00:20:00,15.0, 1.1
2022/12/27 00:30:00,14.9, 1.1
2022/12/27 00:40:00,14.9, 1.0
2022/12/27 00:50:00,14.9, 1.2
2022/12/27 01:00:00,14.9, 1.3
2022/12/27 01:10:00,14.9, 1.2
2022/12/27 01:20:00,14.9, 1.3
2022/12/27 01:30:00,14.9, 1.3
2022/12/27 01:40:00,14.9, 1.3
2022/12/27 01:50:00,14.8, 1.2
2022/12/27 02:00:00,14.8, 1.2
2022/12/27 02:10:00,14.8, 1.1
2022/12/27 02:20:00,14.8, 1.2
2022/12/27 02:30:00,14.8, 1.1
2022/12/27 02:40:00,14.7, 1.1
2022/12/27 02:50:00,14.7, 1.2
2022/12/27 03:00:00,14.7, 1.3
2022/12/27 03:10:00,14.7, 1.4
2022/12/27 03:20:00,14.6, 1.1
2022/12/27 03:30:00,14.6, 1.3
2022/12/27 03:40:00,14.6, 1.1
2022/12/27 03:50:00,14.6, 1.1
2022/12/27 04:00:00,14.6, 1.4
2022/12/27 04:10:00,14.6, 1.3
2022/12/27 04:20:00,14.6, 1.1
2022/12/27 04:30:00,14.6, 1.3
2022/12/27 04:40:00,14.6, 1.7
2022/12/27 04:50:00,14.6, 1.1
2022/12/27 05:00:00,14.6, 1.3
2022/12/27 05:10:00,14.5, 1.3
2022/12/27 05:20:00,14.5, 1.3
2022/12/27 05:30:00,14.5, 1.2
2022/12/27 05:40:00,14.7, 1.1
2022/12/27 05:50:00,14.6, 1.2
2022/12/27 06:00:00,14.6, 1.4
2022/12/27 06:10:00,14.6, 1.2
2022/12/27 06:20:00,14.5, 1.2
2022/12/27 06:30:00,14.4, 1.2
2022/12/27 06:40:00,14.4, 1.0
2022/12/27 06:50:00,14.4, 1.1
2022/12/27 07:00:00,14.4, 1.2
2022/12/27 07:10:00,14.3, 1.3
2022/12/27 07:20:00,14.3, 1.2
2022/12/27 07:30:00,14.3, 1.2
2022/12/27 07:40:00,14.3, 1.2
2022/12/27 07:50:00,14.3, 1.4
2022/12/27 08:00:00,14.3, 1.3
2022/12/27 08:10:00,14.3, 1.4
2022/12/27 08:20:00,14.3, 1.4
2022/12/27 08:30:00,14.3, 1.7
2022/12/27 08:40:00,14.2, 1.8
2022/12/27 08:50:00,14.2, 2.3
2022/12/27 09:00:00,14.2, 1.7
2022/12/27 09:10:00,14.2, 2.1
2022/12/27 09:20:00,14.2, 2.3
2022/12/27 09:30:00,14.2, 2.8
2022/12/27 09:40:00,14.2, 2.6
2022/12/27 09:50:00,14.2, 2.7
2022/12/27 10:00:00,14.1, 2.8
2022/12/27 10:10:00,14.1, 3.0
2022/12/27 10:20:00,14.1, 2.9
2022/12/27 10:30:00,14.0, 2.7
2022/12/27 10:40:00,14.0, 3.4
2022/12/27 10:50:00,13.9, 3.7
2022/12/27 11:00:00,13.9, 3.6
2022/12/27 11:10:00,13.9, 3.8
2022/12/27 11:20:00,13.8, 4.5
2022/12/27 11:30:00,13.8, 4.4
2022/12/27 11:40:00,13.8, 5.1
2022/12/27 11:50:00,13.8, 4.7
2022/12/27 12:00:00,13.8, 4.5
2022/12/27 12:10:00,13.8, 4.2
2022/12/27 12:20:00,13.7, 5.3
2022/12/27 12:30:00,13.7, 4.8
2022/12/27 12:40:00,13.7, 4.4
2022/12/27 12:50:00,13.6, 4.3
2022/12/27 13:00:00,13.6, 4.3
2022/12/27 13:10:00,13.6, 5.0
2022/12/27 13:20:00,13.6, 4.1
2022/12/27 13:30:00,13.6, 4.2
2022/12/27 13:40:00,13.7, 3.9
2022/12/27 13:50:00,13.5, 4.1
2022/12/27 14:00:00,13.5, 4.0
2022/12/27 14:10:00,13.4, 4.5
2022/12/27 14:20:00,13.3, 4.9
2022/12/27 14:30:00,13.3, 9.0
2022/12/27 14:40:00,13.0,11.0
2022/12/27 14:50:00,13.0,12.1
2022/12/27 15:00:00,12.9,12.7
2022/12/27 15:10:00,13.0,10.3
2022/12/27 15:20:00,13.0,11.5
2022/12/27 15:30:00,13.0, 7.0
2022/12/27 15:40:00,13.0, 7.4
2022/12/27 15:50:00,13.0, 6.4
2022/12/27 16:00:00,12.9, 6.9
2022/12/27 16:10:00,12.9, 4.5
2022/12/27 16:20:00,13.0, 3.9
2022/12/27 16:30:00,13.0, 3.5
2022/12/27 16:40:00,13.1, 3.2
2022/12/27 16:50:00,13.1, 2.7
2022/12/27 17:00:00,13.0, 2.0
2022/12/27 17:10:00,13.0, 2.0
2022/12/27 17:20:00,13.0, 1.3
2022/12/27 17:30:00,13.0, 1.4
2022/12/27 17:40:00,13.0, 1.2
2022/12/27 17:50:00,13.0, 1.2
2022/12/27 18:00:00,13.0, 1.1
2022/12/27 18:10:00,13.0, 1.1
2022/12/27 18:20:00,13.0, 1.5
2022/12/27 18:30:00,13.0, 1.1
2022/12/27 18:40:00,13.0, 1.4
2022/12/27 18:50:00,13.0, 1.1
2022/12/27 19:00:00,12.9, 0.9
2022/12/27 19:10:00,12.9, 0.8
2022/12/27 19:20:00,12.9, 0.6
2022/12/27 19:30:00,12.9, 0.4
2022/12/27 19:40:00,12.9, 0.4
2022/12/27 19:50:00,12.9, 0.3
2022/12/27 20:00:00,12.9, 0.4
2022/12/27 20:10:00,12.9, 0.6
2022/12/27 20:20:00,12.9, 0.6
2022/12/27 20:30:00,12.9, 0.5
2022/12/27 20:40:00,12.9, 0.3
2022/12/27 20:50:00,12.9, 0.2
2022/12/27 21:00:00,12.9, 0.2
2022/12/27 21:10:00,12.8, 0.3
2022/12/27 21:20:00,12.8, 0.2
2022/12/27 21:30:00,12.8,-0.1
2022/12/27 21:40:00,12.9,-0.2
2022/12/27 21:50:00,12.9,-0.1
2022/12/27 22:00:00,12.9,-0.1
2022/12/27 22:10:00,13.0,-0.1
2022/12/27 22:20:00,13.0,-0.1
2022/12/27 22:30:00,13.0,-0.1
2022/12/27 22:40:00,13.0, 0.0
2022/12/27 22:50:00,12.9,-0.2
2022/12/27 23:00:00,12.9,-0.1
2022/12/27 23:10:00,12.9,-0.2
2022/12/27 23:20:00,13.0,-0.2
2022/12/27 23:30:00,12.9, 0.0
2022/12/27 23:40:00,12.9,-0.2
2022/12/27 23:50:00,12.9,-0.2
